Time,TemperatureF,DewpointF,PressureIn,WindDirection,WindDirectionDegrees,WindSpeedMPH,WindSpeedGustMPH,Humidity,HourlyPrecipIn,Conditions,Clouds,dailyrainin,SoftwareType,DateUTC
2013-05-04 00:09:00,44.3,44.0,29.96,ESE,117,4.0,-999.0,100,-99.99,,,0.01,weatherlink.com 1.10,2013-05-04 04:09:00,
2013-05-04 00:25:00,44.3,44.0,29.95,SSW,201,0.0,-999.0,100,-99.99,,,0.02,weatherlink.com 1.10,2013-05-04 04:25:00,
2013-05-04 00:40:00,44.3,44.0,29.95,ESE,119,3.0,-999.0,100,-99.99,,,0.03,weatherlink.com 1.10,2013-05-04 04:40:00,
2013-05-04 00:55:00,44.2,44.0,29.95,SE,133,2.0,-999.0,100,-99.99,,,0.04,weatherlink.com 1.10,2013-05-04 04:55:00,
2013-05-04 01:10:00,44.2,44.0,29.95,ENE,72,2.0,-999.0,100,-99.99,,,0.04,weatherlink.com 1.10,2013-05-04 05:10:00,
2013-05-04 01:25:00,44.1,44.0,29.90,ESE,114,4.0,-999.0,100,-99.99,,,0.04,weatherlink.com 1.10,2013-05-04 05:25:00,
2013-05-04 01:40:00,43.9,44.0,29.90,ENE,78,5.0,-999.0,100,-99.99,,,0.05,weatherlink.com 1.10,2013-05-04 05:40:00,
2013-05-04 01:55:00,43.6,44.0,29.89,SE,137,8.0,-999.0,100,-99.99,,,0.05,weatherlink.com 1.10,2013-05-04 05:55:00,
2013-05-04 02:10:00,43.2,43.0,29.89,SSE,153,3.0,-999.0,100,-99.99,,,0.06,weatherlink.com 1.10,2013-05-04 06:10:00,
2013-05-04 02:25:00,42.9,43.0,29.92,WNW,287,6.0,-999.0,100,-99.99,,,0.07,weatherlink.com 1.10,2013-05-04 06:25:00,
2013-05-04 02:40:00,42.5,43.0,29.92,ESE,113,4.0,-999.0,100,-99.99,,,0.07,weatherlink.com 1.10,2013-05-04 06:40:00,
2013-05-04 02:55:00,41.8,42.0,29.91,WSW,241,1.0,-999.0,100,-99.99,,,0.08,weatherlink.com 1.10,2013-05-04 06:55:00,
2013-05-04 03:10:00,40.8,41.0,29.92,SE,138,3.0,-999.0,100,-99.99,,,0.08,weatherlink.com 1.10,2013-05-04 07:10:00,
2013-05-04 03:25:00,40.1,40.0,29.93,ESE,123,4.0,-999.0,100,-99.99,,,0.08,weatherlink.com 1.10,2013-05-04 07:25:00,
2013-05-04 03:40:00,39.8,40.0,29.95,West,275,2.0,-999.0,100,-99.99,,,0.08,weatherlink.com 1.10,2013-05-04 07:40:00,
2013-05-04 03:55:00,39.6,40.0,29.94,ESE,110,4.0,-999.0,100,-99.99,,,0.08,weatherlink.com 1.10,2013-05-04 07:55:00,
2013-05-04 04:10:00,39.5,40.0,29.93,SE,126,3.0,-999.0,100,-99.99,,,0.08,weatherlink.com 1.10,2013-05-04 08:10:00,
2013-05-04 04:25:00,38.8,39.0,29.94,ESE,117,4.0,-999.0,100,-99.99,,,0.08,weatherlink.com 1.10,2013-05-04 08:25:00,
2013-05-04 04:40:00,38.2,38.0,29.94,SSW,196,4.0,-999.0,100,-99.99,,,0.08,weatherlink.com 1.10,2013-05-04 08:40:00,
2013-05-04 04:55:00,37.9,38.0,29.94,ESE,108,0.0,-999.0,99,-99.99,,,0.08,weatherlink.com 1.10,2013-05-04 08:55:00,
2013-05-04 05:10:00,37.8,37.0,29.94,SSW,198,2.0,-999.0,96,-99.99,,,0.08,weatherlink.com 1.10,2013-05-04 09:10:00,
2013-05-04 05:25:00,37.5,35.0,29.94,East,95,0.0,-999.0,91,-99.99,,,0.08,weatherlink.com 1.10,2013-05-04 09:25:00,
2013-05-04 05:40:00,37.3,35.0,29.95,WNW,301,3.0,-999.0,90,-99.99,,,0.08,weatherlink.com 1.10,2013-05-04 09:40:00,
2013-05-04 05:55:00,37.2,34.0,29.95,South,176,1.0,-999.0,89,-99.99,,,0.08,weatherlink.com 1.10,2013-05-04 09:55:00,
2013-05-04 06:10:00,37.0,34.0,29.95,South,174,3.0,-999.0,89,-99.99,,,0.08,weatherlink.com 1.10,2013-05-04 10:10:00,
2013-05-04 06:25:00,37.0,34.0,29.96,SE,137,2.0,-999.0,90,-99.99,,,0.08,weatherlink.com 1.10,2013-05-04 10:25:00,
2013-05-04 06:40:00,37.0,35.0,29.96,ESE,105,1.0,-999.0,92,-99.99,,,0.08,weatherlink.com 1.10,2013-05-04 10:40:00,
2013-05-04 06:55:00,37.2,36.0,29.97,ESE,112,2.0,-999.0,94,-99.99,,,0.08,weatherlink.com 1.10,2013-05-04 10:55:00,
2013-05-04 07:10:00,37.5,36.0,29.96,East,101,4.0,-999.0,95,-99.99,,,0.08,weatherlink.com 1.10,2013-05-04 11:10:00,
2013-05-04 07:25:00,37.6,37.0,29.96,SSW,209,2.0,-999.0,96,-99.99,,,0.08,weatherlink.com 1.10,2013-05-04 11:25:00,
2013-05-04 07:40:00,37.9,37.0,29.97,South,186,3.0,-999.0,97,-99.99,,,0.08,weatherlink.com 1.10,2013-05-04 11:40:00,
2013-05-04 07:55:00,38.0,38.0,29.96,ESE,113,0.0,-999.0,98,-99.99,,,0.08,weatherlink.com 1.10,2013-05-04 11:55:00,
2013-05-04 08:10:00,38.3,38.0,29.96,ESE,107,0.0,-999.0,99,-99.99,,,0.08,weatherlink.com 1.10,2013-05-04 12:10:00,
2013-05-04 08:25:00,38.8,39.0,29.95,ENE,67,2.0,-999.0,99,-99.99,,,0.08,weatherlink.com 1.10,2013-05-04 12:25:00,
2013-05-04 08:55:00,39.2,39.0,29.94,South,172,3.0,-999.0,100,-99.99,,,0.08,weatherlink.com 1.10,2013-05-04 12:55:00,
2013-05-04 09:10:00,39.5,40.0,29.94,East,101,2.0,-999.0,100,-99.99,,,0.08,weatherlink.com 1.10,2013-05-04 13:10:00,
2013-05-04 09:25:00,39.6,40.0,29.94,East,79,3.0,-999.0,100,-99.99,,,0.08,weatherlink.com 1.10,2013-05-04 13:25:00,
2013-05-04 09:40:00,39.8,40.0,29.94,SSW,203,3.0,-999.0,100,-99.99,,,0.08,weatherlink.com 1.10,2013-05-04 13:40:00,
2013-05-04 09:55:00,40.1,40.0,29.94,ENE,57,4.0,-999.0,100,-99.99,,,0.08,weatherlink.com 1.10,2013-05-04 13:55:00,
2013-05-04 10:10:00,40.3,40.0,29.94,SSW,212,4.0,-999.0,100,-99.99,,,0.08,weatherlink.com 1.10,2013-05-04 14:10:00,
2013-05-04 10:25:00,40.8,41.0,29.94,SSE,165,2.0,-999.0,100,-99.99,,,0.08,weatherlink.com 1.10,2013-05-04 14:25:00,
2013-05-04 10:40:00,40.8,41.0,29.94,SSE,159,1.0,-999.0,100,-99.99,,,0.08,weatherlink.com 1.10,2013-05-04 14:40:00,
2013-05-04 10:55:00,40.9,41.0,29.94,ESE,109,1.0,-999.0,100,-99.99,,,0.08,weatherlink.com 1.10,2013-05-04 14:55:00,
2013-05-04 11:11:00,41.1,41.0,29.94,ENE,61,3.0,-999.0,100,-99.99,,,0.08,weatherlink.com 1.10,2013-05-04 15:11:00,
2013-05-04 11:26:00,41.6,42.0,29.95,SE,139,3.0,-999.0,100,-99.99,,,0.08,weatherlink.com 1.10,2013-05-04 15:26:00,
2013-05-04 11:41:00,41.6,42.0,29.93,East,99,1.0,-999.0,100,-99.99,,,0.08,weatherlink.com 1.10,2013-05-04 15:41:00,
2013-05-04 11:56:00,42.1,42.0,29.93,ESE,107,1.0,-999.0,100,-99.99,,,0.08,weatherlink.com 1.10,2013-05-04 15:56:00,
2013-05-04 12:11:00,43.3,43.0,29.93,SSW,207,5.0,-999.0,100,-99.99,,,0.08,weatherlink.com 1.10,2013-05-04 16:11:00,
2013-05-04 12:26:00,43.3,43.0,29.90,SE,132,2.0,-999.0,100,-99.99,,,0.08,weatherlink.com 1.10,2013-05-04 16:26:00,
2013-05-04 12:41:00,43.5,44.0,29.90,SW,215,7.0,-999.0,100,-99.99,,,0.08,weatherlink.com 1.10,2013-05-04 16:41:00,
2013-05-04 12:56:00,43.1,43.0,29.90,SE,131,2.0,-999.0,100,-99.99,,,0.08,weatherlink.com 1.10,2013-05-04 16:56:00,
2013-05-04 13:11:00,43.3,43.0,29.91,ENE,71,9.0,-999.0,100,-99.99,,,0.08,weatherlink.com 1.10,2013-05-04 17:11:00,
2013-05-04 13:26:00,43.3,43.0,29.91,SW,215,2.0,-999.0,100,-99.99,,,0.09,weatherlink.com 1.10,2013-05-04 17:26:00,
2013-05-04 13:41:00,44.2,44.0,29.90,ESE,120,6.0,-999.0,100,-99.99,,,0.09,weatherlink.com 1.10,2013-05-04 17:41:00,
2013-05-04 13:56:00,43.2,43.0,29.90,SE,126,3.0,-999.0,100,-99.99,,,0.09,weatherlink.com 1.10,2013-05-04 17:56:00,
2013-05-04 14:11:00,42.8,43.0,29.91,East,92,1.0,-999.0,100,-99.99,,,0.09,weatherlink.com 1.10,2013-05-04 18:11:00,
2013-05-04 14:26:00,42.3,42.0,29.92,ESE,111,1.0,-999.0,100,-99.99,,,0.09,weatherlink.com 1.10,2013-05-04 18:26:00,
2013-05-04 14:41:00,42.6,43.0,29.91,ESE,111,2.0,-999.0,100,-99.99,,,0.09,weatherlink.com 1.10,2013-05-04 18:41:00,
2013-05-04 14:56:00,42.6,43.0,29.90,NNW,344,3.0,-999.0,100,-99.99,,,0.10,weatherlink.com 1.10,2013-05-04 18:56:00,
2013-05-04 15:11:00,42.2,42.0,29.90,ESE,107,0.0,-999.0,100,-99.99,,,0.12,weatherlink.com 1.10,2013-05-04 19:11:00,
2013-05-04 15:26:00,42.3,42.0,29.90,SE,138,1.0,-999.0,100,-99.99,,,0.12,weatherlink.com 1.10,2013-05-04 19:26:00,
2013-05-04 15:41:00,42.8,43.0,29.89,SSW,192,3.0,-999.0,100,-99.99,,,0.13,weatherlink.com 1.10,2013-05-04 19:41:00,
2013-05-04 15:56:00,42.8,43.0,29.89,ENE,69,1.0,-999.0,100,-99.99,,,0.13,weatherlink.com 1.10,2013-05-04 19:56:00,
2013-05-04 16:11:00,42.6,43.0,29.89,SE,126,3.0,-999.0,100,-99.99,,,0.13,weatherlink.com 1.10,2013-05-04 20:11:00,
2013-05-04 16:26:00,42.6,43.0,29.91,SSE,155,0.0,-999.0,100,-99.99,,,0.14,weatherlink.com 1.10,2013-05-04 20:26:00,
2013-05-04 16:41:00,42.5,43.0,29.91,East,81,2.0,-999.0,100,-99.99,,,0.14,weatherlink.com 1.10,2013-05-04 20:41:00,
2013-05-04 16:56:00,42.6,43.0,29.90,ESE,119,1.0,-999.0,100,-99.99,,,0.14,weatherlink.com 1.10,2013-05-04 20:56:00,
2013-05-04 17:11:00,42.5,43.0,29.90,SE,126,0.0,-999.0,100,-99.99,,,0.16,weatherlink.com 1.10,2013-05-04 21:11:00,
2013-05-04 17:26:00,42.5,43.0,29.89,WNW,288,4.0,-999.0,100,-99.99,,,0.17,weatherlink.com 1.10,2013-05-04 21:26:00,
2013-05-04 17:41:00,42.8,43.0,29.89,SE,128,0.0,-999.0,100,-99.99,,,0.18,weatherlink.com 1.10,2013-05-04 21:41:00,
2013-05-04 17:56:00,42.8,43.0,29.89,South,171,4.0,-999.0,100,-99.99,,,0.19,weatherlink.com 1.10,2013-05-04 21:56:00,
2013-05-04 18:11:00,42.9,43.0,29.89,ESE,102,2.0,-999.0,100,-99.99,,,0.20,weatherlink.com 1.10,2013-05-04 22:11:00,
2013-05-04 18:26:00,42.8,43.0,29.90,ESE,112,2.0,-999.0,100,-99.99,,,0.20,weatherlink.com 1.10,2013-05-04 22:26:00,
2013-05-04 18:41:00,42.9,43.0,29.89,ESE,117,3.0,-999.0,100,-99.99,,,0.21,weatherlink.com 1.10,2013-05-04 22:41:00,
2013-05-04 18:56:00,42.9,43.0,29.89,South,174,4.0,-999.0,100,-99.99,,,0.22,weatherlink.com 1.10,2013-05-04 22:56:00,
2013-05-04 19:11:00,42.9,43.0,29.89,SE,124,1.0,-999.0,100,-99.99,,,0.22,weatherlink.com 1.10,2013-05-04 23:11:00,
2013-05-04 19:26:00,42.9,43.0,29.89,East,80,2.0,-999.0,100,-99.99,,,0.23,weatherlink.com 1.10,2013-05-04 23:26:00,
2013-05-04 19:41:00,42.8,43.0,29.89,ENE,69,3.0,-999.0,100,-99.99,,,0.23,weatherlink.com 1.10,2013-05-04 23:41:00,
2013-05-04 19:56:00,42.9,43.0,29.90,ESE,115,3.0,-999.0,100,-99.99,,,0.24,weatherlink.com 1.10,2013-05-04 23:56:00,
2013-05-04 20:11:00,42.8,43.0,29.89,SE,135,2.0,-999.0,100,-99.99,,,0.25,weatherlink.com 1.10,2013-05-05 00:11:00,
2013-05-04 20:26:00,42.8,43.0,29.88,SSE,153,0.0,-999.0,100,-99.99,,,0.26,weatherlink.com 1.10,2013-05-05 00:26:00,
2013-05-04 20:41:00,42.8,43.0,29.90,SE,128,3.0,-999.0,100,-99.99,,,0.27,weatherlink.com 1.10,2013-05-05 00:41:00,
2013-05-04 20:56:00,42.5,43.0,29.90,NE,34,2.0,-999.0,100,-99.99,,,0.28,weatherlink.com 1.10,2013-05-05 00:56:00,
2013-05-04 21:11:00,42.5,43.0,29.89,SE,137,2.0,-999.0,100,-99.99,,,0.30,weatherlink.com 1.10,2013-05-05 01:11:00,
2013-05-04 21:26:00,42.5,43.0,29.93,SSE,156,4.0,-999.0,100,-99.99,,,0.31,weatherlink.com 1.10,2013-05-05 01:26:00,
2013-05-04 21:41:00,42.3,42.0,29.91,SSW,202,1.0,-999.0,100,-99.99,,,0.32,weatherlink.com 1.10,2013-05-05 01:41:00,
2013-05-04 21:56:00,42.3,42.0,29.91,East,88,3.0,-999.0,100,-99.99,,,0.34,weatherlink.com 1.10,2013-05-05 01:56:00,
2013-05-04 22:11:00,42.3,42.0,29.91,East,98,5.0,-999.0,100,-99.99,,,0.35,weatherlink.com 1.10,2013-05-05 02:11:00,
2013-05-04 22:26:00,42.3,42.0,29.91,WSW,253,0.0,-999.0,100,-99.99,,,0.36,weatherlink.com 1.10,2013-05-05 02:26:00,
2013-05-04 22:41:00,42.3,42.0,29.91,East,95,0.0,-999.0,100,-99.99,,,0.38,weatherlink.com 1.10,2013-05-05 02:41:00,
2013-05-04 22:56:00,42.3,42.0,29.91,SE,131,0.0,-999.0,100,-99.99,,,0.39,weatherlink.com 1.10,2013-05-05 02:56:00,
2013-05-04 23:11:00,42.3,42.0,29.90,SW,232,2.0,-999.0,100,-99.99,,,0.40,weatherlink.com 1.10,2013-05-05 03:11:00,
2013-05-04 23:26:00,42.3,42.0,29.88,SSW,211,2.0,-999.0,100,-99.99,,,0.41,weatherlink.com 1.10,2013-05-05 03:26:00,
2013-05-04 23:41:00,42.3,42.0,29.87,ENE,74,2.0,-999.0,100,-99.99,,,0.42,weatherlink.com 1.10,2013-05-05 03:41:00,
2013-05-04 23:56:00,42.2,42.0,29.87,SSW,192,2.0,-999.0,100,-99.99,,,0.43,weatherlink.com 1.10,2013-05-05 03:56:00,